N254SB KMCO-KIND

Flight info

Callsign N254SB
Flight time 2h 3m
Altitude 38000
Route RDSOX1 JFRYS BRUTS Q118 THRSR Q79 SWAPP HAGAL GIIBS4
Aircraft B737/M-SDE2E3FGHIRWXY/LB1

Departure

Time 2026-04-25 00:03
Airport Orlando International Airport (KMCO)

Arrival

Time 2026-04-25 02:06
Airport Indianapolis International Airport (KIND)
Time Latitude Longitude Altitude Speed Heading
2026-04-24 23:41 28.43125 -81.33030 90 ft 0 kts 359°
2026-04-24 23:56 28.43147 -81.33030 108 ft 8 kts
2026-04-24 23:56 28.43248 -81.32990 108 ft 24 kts 27°
2026-04-24 23:56 28.43414 -81.32928 107 ft 26 kts 359°
2026-04-24 23:57 28.43583 -81.32928 106 ft 24 kts 359°
2026-04-24 23:57 28.43745 -81.32931 101 ft 24 kts 359°
2026-04-24 23:57 28.43916 -81.32932 101 ft 24 kts
2026-04-24 23:57 28.44067 -81.32869 101 ft 23 kts 15°
2026-04-24 23:58 28.44223 -81.32864 101 ft 22 kts
2026-04-24 23:58 28.44373 -81.32865 106 ft 21 kts 359°
2026-04-24 23:58 28.44521 -81.32866 107 ft 21 kts 360°
2026-04-24 23:58 28.44664 -81.32867 108 ft 20 kts 360°
2026-04-24 23:59 28.44800 -81.32851 113 ft 20 kts 37°
2026-04-24 23:59 28.44818 -81.32722 108 ft 29 kts 89°
2026-04-24 23:59 28.44821 -81.32489 106 ft 25 kts 90°
2026-04-24 23:59 28.44823 -81.32333 104 ft 10 kts 90°
2026-04-25 00:00 28.44823 -81.32328 103 ft 0 kts 90°
2026-04-25 00:00 28.44823 -81.32292 102 ft 14 kts 90°
2026-04-25 00:00 28.44815 -81.32235 100 ft 2 kts 141°
2026-04-25 00:01 28.44792 -81.32231 101 ft 1 kts 174°
2026-04-25 00:01 28.44787 -81.32230 101 ft 0 kts 176°
2026-04-25 00:02 28.44772 -81.32229 101 ft 12 kts 176°
2026-04-25 00:02 28.44467 -81.32225 104 ft 88 kts 180°
2026-04-25 00:03 28.43589 -81.32199 186 ft 156 kts 175°
2026-04-25 00:03 28.42427 -81.32178 952 ft 176 kts 176°
2026-04-25 00:03 28.41200 -81.32137 2196 ft 173 kts 174°
2026-04-25 00:03 28.39861 -81.32182 2864 ft 210 kts 192°
2026-04-25 00:04 28.38449 -81.32918 3211 ft 235 kts 207°
2026-04-25 00:04 28.36996 -81.33797 3895 ft 243 kts 208°
2026-04-25 00:04 28.35437 -81.34726 4448 ft 260 kts 209°
2026-04-25 00:04 28.33985 -81.35974 5324 ft 263 kts 231°
2026-04-25 00:05 28.32823 -81.37597 6387 ft 267 kts 232°
2026-04-25 00:05 28.31653 -81.39273 7278 ft 274 kts 233°
2026-04-25 00:05 28.30479 -81.40995 8257 ft 277 kts 234°
2026-04-25 00:05 28.29300 -81.42756 9216 ft 282 kts 234°
2026-04-25 00:06 28.28124 -81.44532 10148 ft 287 kts 235°
2026-04-25 00:06 28.26900 -81.46411 10662 ft 308 kts 237°
2026-04-25 00:06 28.26048 -81.48722 10866 ft 331 kts 264°
2026-04-25 00:06 28.26326 -81.51322 11514 ft 338 kts 291°
2026-04-25 00:07 28.27265 -81.53771 12466 ft 339 kts 295°
2026-04-25 00:07 28.28267 -81.56201 13377 ft 342 kts 295°
2026-04-25 00:07 28.29287 -81.58656 14184 ft 346 kts 295°
2026-04-25 00:07 28.30311 -81.61146 14925 ft 350 kts 295°
2026-04-25 00:08 28.31324 -81.63639 15651 ft 354 kts 295°
2026-04-25 00:08 28.32355 -81.66199 16405 ft 358 kts 295°
2026-04-25 00:08 28.33389 -81.68786 17156 ft 362 kts 295°
2026-04-25 00:08 28.34432 -81.71407 17870 ft 365 kts 295°
2026-04-25 00:09 28.35484 -81.74056 18535 ft 369 kts 295°
2026-04-25 00:09 28.36545 -81.76732 19143 ft 373 kts 295°
2026-04-25 00:09 28.37600 -81.79393 19755 ft 376 kts 295°
2026-04-25 00:09 28.38677 -81.82112 20373 ft 379 kts 295°
2026-04-25 00:10 28.39765 -81.84862 20989 ft 383 kts 295°
2026-04-25 00:10 28.40863 -81.87636 21581 ft 386 kts 295°
2026-04-25 00:10 28.41880 -81.90474 22146 ft 391 kts 288°
2026-04-25 00:10 28.42527 -81.93492 22705 ft 396 kts 281°
2026-04-25 00:11 28.42751 -81.96630 23242 ft 401 kts 273°
2026-04-25 00:11 28.42799 -81.99824 23732 ft 405 kts 272°
2026-04-25 00:11 28.42822 -82.03031 24220 ft 407 kts 272°
2026-04-25 00:11 28.42845 -82.06209 24727 ft 408 kts 272°
2026-04-25 00:12 28.42876 -82.09440 25223 ft 409 kts 272°
2026-04-25 00:12 28.42916 -82.12683 25707 ft 411 kts 273°
2026-04-25 00:12 28.42961 -82.15930 26180 ft 413 kts 273°
2026-04-25 00:12 28.43009 -82.19200 26642 ft 415 kts 273°
2026-04-25 00:13 28.43058 -82.22490 27090 ft 417 kts 273°
2026-04-25 00:13 28.43106 -82.25789 27499 ft 419 kts 273°
2026-04-25 00:13 28.43154 -82.29121 27899 ft 422 kts 273°
2026-04-25 00:13 28.43201 -82.32464 28304 ft 424 kts 273°
2026-04-25 00:14 28.43247 -82.35834 28715 ft 426 kts 273°
2026-04-25 00:14 28.43293 -82.39211 29123 ft 428 kts 274°
2026-04-25 00:14 28.43697 -82.42498 29463 ft 427 kts 288°
2026-04-25 00:14 28.44926 -82.45555 29833 ft 427 kts 303°
2026-04-25 00:15 28.46795 -82.48186 30211 ft 429 kts 314°
2026-04-25 00:15 28.49143 -82.50278 30590 ft 432 kts 328°
2026-04-25 00:15 28.51872 -82.51721 30995 ft 433 kts 335°
2026-04-25 00:15 28.54675 -82.53010 31336 ft 435 kts 335°
2026-04-25 00:16 28.57498 -82.54271 31653 ft 436 kts 336°
2026-04-25 00:16 28.60322 -82.55533 32029 ft 435 kts 335°
2026-04-25 00:16 28.63136 -82.56803 32467 ft 433 kts 335°
2026-04-25 00:16 28.65938 -82.58083 32879 ft 432 kts 335°
2026-04-25 00:17 28.68720 -82.59366 33258 ft 431 kts 335°
2026-04-25 00:17 28.71501 -82.60657 33624 ft 431 kts 335°
2026-04-25 00:17 28.74242 -82.61933 34003 ft 430 kts 335°
2026-04-25 00:17 28.77011 -82.63225 34330 ft 429 kts 335°
2026-04-25 00:18 28.79773 -82.64515 34625 ft 429 kts 335°
2026-04-25 00:18 28.82533 -82.65805 34908 ft 429 kts 335°
2026-04-25 00:18 28.85299 -82.67098 35208 ft 429 kts 335°
2026-04-25 00:18 28.88063 -82.68391 35514 ft 428 kts 335°
2026-04-25 00:19 28.90818 -82.69679 35791 ft 428 kts 335°
2026-04-25 00:19 28.93578 -82.70971 36060 ft 428 kts 335°
2026-04-25 00:19 28.96296 -82.72243 36343 ft 428 kts 335°
2026-04-25 00:19 28.99049 -82.73533 36632 ft 427 kts 335°
2026-04-25 00:20 29.01805 -82.74825 36884 ft 427 kts 335°
2026-04-25 00:20 29.04556 -82.76116 37135 ft 428 kts 335°
2026-04-25 00:20 29.07315 -82.77410 37378 ft 428 kts 335°
2026-04-25 00:20 29.10071 -82.78705 37626 ft 428 kts 335°
2026-04-25 00:21 29.12827 -82.80000 37886 ft 428 kts 335°
2026-04-25 00:21 29.15587 -82.81297 37961 ft 431 kts 335°
2026-04-25 00:21 29.21150 -82.83915 37967 ft 431 kts 335°
2026-04-25 00:22 29.26669 -82.86514 37965 ft 427 kts 335°
2026-04-25 00:22 29.32164 -82.89105 37967 ft 425 kts 335°
2026-04-25 00:23 29.37632 -82.91688 37968 ft 424 kts 335°
2026-04-25 00:23 29.43093 -82.94271 37965 ft 424 kts 335°
2026-04-25 00:24 29.48558 -82.96857 37962 ft 425 kts 335°
2026-04-25 00:24 29.54019 -82.99445 37960 ft 427 kts 335°
2026-04-25 00:25 29.59524 -83.02056 37958 ft 429 kts 335°
2026-04-25 00:25 29.65065 -83.04687 37957 ft 431 kts 335°
2026-04-25 00:26 29.70625 -83.07332 37956 ft 432 kts 335°
2026-04-25 00:26 29.76165 -83.09969 37955 ft 434 kts 335°
2026-04-25 00:27 29.81750 -83.12632 37962 ft 435 kts 335°
2026-04-25 00:27 29.87359 -83.15309 37973 ft 438 kts 335°
2026-04-25 00:28 29.92060 -83.17556 37971 ft 441 kts 335°
2026-04-25 00:28 29.97748 -83.20277 37971 ft 443 kts 335°
2026-04-25 00:29 30.03455 -83.23010 37963 ft 444 kts 335°
2026-04-25 00:29 30.09159 -83.25745 37963 ft 444 kts 335°
2026-04-25 00:30 30.14861 -83.28484 37960 ft 443 kts 335°
2026-04-25 00:30 30.20507 -83.31198 37958 ft 442 kts 335°
2026-04-25 00:31 30.26186 -83.33933 37955 ft 441 kts 335°
2026-04-25 00:31 30.31849 -83.36668 37957 ft 440 kts 335°
2026-04-25 00:32 30.37469 -83.39387 37955 ft 440 kts 335°
2026-04-25 00:32 30.43111 -83.42120 37956 ft 439 kts 335°
2026-04-25 00:33 30.48749 -83.44854 37949 ft 439 kts 335°
2026-04-25 00:33 30.54386 -83.47591 37950 ft 439 kts 335°
2026-04-25 00:34 30.60001 -83.50321 37942 ft 439 kts 335°
2026-04-25 00:34 30.65642 -83.53067 37944 ft 439 kts 335°
2026-04-25 00:35 30.71273 -83.55812 37937 ft 439 kts 335°
2026-04-25 00:35 30.76903 -83.58559 37946 ft 439 kts 335°
2026-04-25 00:36 30.82532 -83.61310 37940 ft 439 kts 336°
2026-04-25 00:36 30.88130 -83.64048 37942 ft 438 kts 336°
2026-04-25 00:37 30.93758 -83.66805 37941 ft 438 kts 336°
2026-04-25 00:37 30.99386 -83.69566 37936 ft 438 kts 336°
2026-04-25 00:38 31.05005 -83.72326 37932 ft 438 kts 336°
2026-04-25 00:38 31.10588 -83.75072 37938 ft 437 kts 336°
2026-04-25 00:39 31.16198 -83.77834 37932 ft 437 kts 336°
2026-04-25 00:39 31.21816 -83.80604 37937 ft 437 kts 336°
2026-04-25 00:40 31.27429 -83.83375 37933 ft 437 kts 336°
2026-04-25 00:40 31.33001 -83.86130 37931 ft 437 kts 336°
2026-04-25 00:41 31.38619 -83.88911 37931 ft 438 kts 336°
2026-04-25 00:41 31.44245 -83.91700 37935 ft 438 kts 336°
2026-04-25 00:42 31.49869 -83.94491 37933 ft 439 kts 336°
2026-04-25 00:42 31.55691 -83.96590 37941 ft 441 kts 347°
2026-04-25 00:43 31.61745 -83.97893 37933 ft 442 kts 348°
2026-04-25 00:43 31.67802 -83.99171 37928 ft 443 kts 348°
2026-04-25 00:44 31.73832 -84.00484 37933 ft 443 kts 348°
2026-04-25 00:44 31.79906 -84.01833 37933 ft 444 kts 348°
2026-04-25 00:45 31.85984 -84.03190 37936 ft 445 kts 348°
2026-04-25 00:45 31.92068 -84.04551 37918 ft 445 kts 348°
2026-04-25 00:46 31.98156 -84.05914 37912 ft 445 kts 348°
2026-04-25 00:47 32.07250 -84.07952 37908 ft 446 kts 348°
2026-04-25 00:47 32.13357 -84.09323 37906 ft 446 kts 348°
2026-04-25 00:48 32.19456 -84.10694 37908 ft 446 kts 348°
2026-04-25 00:48 32.25564 -84.12069 37909 ft 447 kts 349°
2026-04-25 00:49 32.31648 -84.13441 37910 ft 447 kts 349°
2026-04-25 00:49 32.37767 -84.14822 37913 ft 448 kts 349°
2026-04-25 00:50 32.43897 -84.16208 37914 ft 448 kts 349°
2026-04-25 00:50 32.50034 -84.17597 37916 ft 448 kts 349°
2026-04-25 00:51 32.56167 -84.18987 37915 ft 449 kts 349°
2026-04-25 00:51 32.62276 -84.20374 37916 ft 449 kts 349°
2026-04-25 00:52 32.68429 -84.21773 37928 ft 449 kts 349°
2026-04-25 00:52 32.74578 -84.23172 37937 ft 450 kts 349°
2026-04-25 00:53 32.80737 -84.24576 37948 ft 450 kts 349°
2026-04-25 00:53 32.86859 -84.25974 37954 ft 451 kts 349°
2026-04-25 00:54 32.93031 -84.27385 37920 ft 451 kts 349°
2026-04-25 00:54 32.99198 -84.28796 37926 ft 451 kts 349°
2026-04-25 00:55 33.05381 -84.30214 37930 ft 452 kts 349°
2026-04-25 00:55 33.11525 -84.31624 37942 ft 452 kts 349°
2026-04-25 00:56 33.17715 -84.33047 37948 ft 452 kts 349°
2026-04-25 00:56 33.23909 -84.34474 37966 ft 453 kts 349°
2026-04-25 00:57 33.30058 -84.35892 37972 ft 453 kts 349°
2026-04-25 00:57 33.36263 -84.37324 37971 ft 453 kts 349°
2026-04-25 00:58 33.42429 -84.38750 37973 ft 453 kts 349°
2026-04-25 00:58 33.48639 -84.40188 37968 ft 454 kts 348°
2026-04-25 00:59 33.54851 -84.41629 37934 ft 454 kts 348°
2026-04-25 00:59 33.61025 -84.43063 37937 ft 454 kts 348°
2026-04-25 01:00 33.67262 -84.44478 37935 ft 455 kts 349°
2026-04-25 01:00 33.73501 -84.45830 37927 ft 455 kts 349°
2026-04-25 01:01 33.79708 -84.47178 37928 ft 456 kts 349°
2026-04-25 01:01 33.85955 -84.48547 37903 ft 456 kts 349°
2026-04-25 01:02 33.92185 -84.49917 37907 ft 456 kts 349°
2026-04-25 01:02 33.98441 -84.51295 37912 ft 456 kts 348°
2026-04-25 01:03 34.04708 -84.52694 37954 ft 457 kts 347°
2026-04-25 01:03 34.10898 -84.54283 37946 ft 457 kts 346°
2026-04-25 01:04 34.17125 -84.55941 37946 ft 457 kts 346°
2026-04-25 01:04 34.23311 -84.57567 37947 ft 457 kts 346°
2026-04-25 01:05 34.29546 -84.59191 37937 ft 458 kts 346°
2026-04-25 01:05 34.35777 -84.60814 37944 ft 458 kts 346°
2026-04-25 01:06 34.42015 -84.62441 37932 ft 458 kts 346°
2026-04-25 01:06 34.48215 -84.64062 37933 ft 458 kts 346°
2026-04-25 01:07 34.54458 -84.65697 37913 ft 458 kts 346°
2026-04-25 01:07 34.60705 -84.67318 37924 ft 459 kts 346°
2026-04-25 01:08 34.66966 -84.68868 37921 ft 459 kts 347°
2026-04-25 01:08 34.73199 -84.70401 37927 ft 459 kts 347°
2026-04-25 01:09 34.79471 -84.71954 37932 ft 460 kts 347°
2026-04-25 01:09 34.85755 -84.73518 37924 ft 460 kts 346°
2026-04-25 01:10 34.92029 -84.75084 37925 ft 460 kts 346°
2026-04-25 01:10 34.98310 -84.76654 37905 ft 460 kts 346°
2026-04-25 01:11 35.04552 -84.78216 37903 ft 461 kts 346°
2026-04-25 01:11 35.10841 -84.79793 37897 ft 461 kts 346°
2026-04-25 01:12 35.17127 -84.81371 37899 ft 461 kts 346°
2026-04-25 01:12 35.23421 -84.82954 37900 ft 461 kts 346°
2026-04-25 01:13 35.29677 -84.84530 37899 ft 462 kts 346°
2026-04-25 01:13 35.35996 -84.86124 37903 ft 463 kts 346°
2026-04-25 01:14 35.42309 -84.87719 37902 ft 463 kts 346°
2026-04-25 01:14 35.48634 -84.89319 37905 ft 463 kts 345°
2026-04-25 01:15 35.54905 -84.90909 37910 ft 463 kts 345°
2026-04-25 01:15 35.61216 -84.92510 37912 ft 463 kts 345°
2026-04-25 01:16 35.67528 -84.94109 37928 ft 462 kts 345°
2026-04-25 01:16 35.72763 -84.95436 37931 ft 461 kts 345°
2026-04-25 01:17 35.80066 -84.97291 37948 ft 460 kts 345°
2026-04-25 01:17 35.86339 -84.98888 37949 ft 460 kts 345°
2026-04-25 01:18 35.91543 -85.00215 37956 ft 459 kts 345°
2026-04-25 01:18 35.97803 -85.01813 37958 ft 458 kts 344°
2026-04-25 01:19 36.04056 -85.03412 37951 ft 458 kts 344°
2026-04-25 01:19 36.10301 -85.05011 37948 ft 457 kts 344°
2026-04-25 01:20 36.16491 -85.06600 37941 ft 457 kts 344°
2026-04-25 01:20 36.22724 -85.08202 37934 ft 456 kts 344°
2026-04-25 01:21 36.28953 -85.09805 37928 ft 456 kts 344°
2026-04-25 01:21 36.35140 -85.11400 37926 ft 456 kts 344°
2026-04-25 01:22 36.41355 -85.13005 37921 ft 456 kts 344°
2026-04-25 01:22 36.47573 -85.14613 37922 ft 456 kts 344°
2026-04-25 01:23 36.53789 -85.16224 37922 ft 456 kts 344°
2026-04-25 01:23 36.60009 -85.17838 37920 ft 457 kts 344°
2026-04-25 01:24 36.66195 -85.19428 37915 ft 457 kts 344°
2026-04-25 01:24 36.72459 -85.21017 37924 ft 458 kts 344°
2026-04-25 01:25 36.78667 -85.22592 37910 ft 458 kts 344°
2026-04-25 01:25 36.84916 -85.24184 37914 ft 458 kts 344°
2026-04-25 01:26 36.91174 -85.25784 37908 ft 458 kts 344°
2026-04-25 01:26 36.97429 -85.27385 37911 ft 458 kts 344°
2026-04-25 01:27 37.03643 -85.28978 37909 ft 458 kts 344°
2026-04-25 01:27 37.09886 -85.30582 37922 ft 458 kts 343°
2026-04-25 01:28 37.19260 -85.32995 37940 ft 458 kts 343°
2026-04-25 01:28 37.25456 -85.34593 37955 ft 457 kts 343°
2026-04-25 01:29 37.31691 -85.36204 37956 ft 458 kts 343°
2026-04-25 01:29 37.37941 -85.37822 37951 ft 458 kts 343°
2026-04-25 01:30 37.44191 -85.39442 37951 ft 458 kts 343°
2026-04-25 01:30 37.50432 -85.41063 37932 ft 458 kts 343°
2026-04-25 01:31 37.56676 -85.42688 37922 ft 458 kts 343°
2026-04-25 01:31 37.62930 -85.44317 37891 ft 459 kts 343°
2026-04-25 01:32 37.69151 -85.45941 37896 ft 460 kts 343°
2026-04-25 01:32 37.75424 -85.47582 37899 ft 461 kts 343°
2026-04-25 01:33 37.81715 -85.49229 37897 ft 461 kts 343°
2026-04-25 01:33 37.88018 -85.50884 37902 ft 462 kts 343°
2026-04-25 01:34 37.94290 -85.52532 37897 ft 463 kts 343°
2026-04-25 01:34 38.00617 -85.54198 37890 ft 464 kts 343°
2026-04-25 01:35 38.06902 -85.55853 37866 ft 450 kts 343°
2026-04-25 01:35 38.09921 -85.56646 37879 ft 435 kts 343°
2026-04-25 01:35 38.12802 -85.57406 37879 ft 421 kts 342°
2026-04-25 01:36 38.15639 -85.58156 37888 ft 407 kts 342°
2026-04-25 01:36 38.18375 -85.58876 37881 ft 395 kts 343°
2026-04-25 01:36 38.23682 -85.59799 37885 ft 374 kts 348°
2026-04-25 01:37 38.28885 -85.60492 37740 ft 379 kts 347°
2026-04-25 01:37 38.31507 -85.60862 37314 ft 379 kts 347°
2026-04-25 01:37 38.34135 -85.61246 36804 ft 380 kts 347°
2026-04-25 01:38 38.36748 -85.61634 36150 ft 387 kts 348°
2026-04-25 01:38 38.39481 -85.62048 35144 ft 404 kts 348°
2026-04-25 01:38 38.42339 -85.62489 34039 ft 423 kts 348°
2026-04-25 01:38 38.45320 -85.62946 32676 ft 438 kts 349°
2026-04-25 01:39 38.48397 -85.63414 31267 ft 452 kts 349°
2026-04-25 01:39 38.51548 -85.63889 30129 ft 458 kts 349°
2026-04-25 01:39 38.54706 -85.64365 29216 ft 454 kts 349°
2026-04-25 01:39 38.57815 -85.64835 28476 ft 444 kts 349°
2026-04-25 01:40 38.60865 -85.65288 27769 ft 436 kts 349°
2026-04-25 01:40 38.63820 -85.65719 27018 ft 430 kts 349°
2026-04-25 01:40 38.66781 -85.66150 26244 ft 425 kts 349°
2026-04-25 01:40 38.69716 -85.66579 25490 ft 421 kts 350°
2026-04-25 01:41 38.72605 -85.67003 24766 ft 415 kts 350°
2026-04-25 01:41 38.75459 -85.67423 24071 ft 410 kts 350°
2026-04-25 01:41 38.78283 -85.67839 23366 ft 406 kts 350°
2026-04-25 01:41 38.81071 -85.68251 22566 ft 401 kts 350°
2026-04-25 01:42 38.83812 -85.68656 21977 ft 392 kts 350°
2026-04-25 01:42 38.86494 -85.69052 21448 ft 383 kts 350°
2026-04-25 01:42 38.89112 -85.69439 20947 ft 374 kts 350°
2026-04-25 01:42 38.91643 -85.69814 20463 ft 368 kts 350°
2026-04-25 01:43 38.94169 -85.70190 19987 ft 363 kts 351°
2026-04-25 01:43 38.96673 -85.70563 19513 ft 362 kts 351°
2026-04-25 01:43 38.99214 -85.70942 19034 ft 375 kts 351°
2026-04-25 01:43 39.01830 -85.71333 18522 ft 378 kts 351°
2026-04-25 01:44 39.04425 -85.71763 17943 ft 372 kts 350°
2026-04-25 01:44 39.06964 -85.72216 17404 ft 363 kts 350°
2026-04-25 01:44 39.09437 -85.72658 16980 ft 353 kts 349°
2026-04-25 01:44 39.11850 -85.73084 16549 ft 347 kts 349°
2026-04-25 01:45 39.14228 -85.73514 16106 ft 343 kts 347°
2026-04-25 01:45 39.16521 -85.74305 15650 ft 342 kts 335°
2026-04-25 01:45 39.18708 -85.75540 15227 ft 353 kts 332°
2026-04-25 01:45 39.20947 -85.76873 14743 ft 352 kts 332°
2026-04-25 01:46 39.23153 -85.78170 14265 ft 344 kts 332°
2026-04-25 01:46 39.25311 -85.79420 13813 ft 336 kts 332°
2026-04-25 01:46 39.27421 -85.80636 13326 ft 329 kts 332°
2026-04-25 01:46 39.29489 -85.81827 12852 ft 323 kts 332°
2026-04-25 01:47 39.31536 -85.83006 12413 ft 321 kts 332°
2026-04-25 01:47 39.33513 -85.84293 11947 ft 316 kts 324°
2026-04-25 01:47 39.35271 -85.85963 11559 ft 312 kts 317°
2026-04-25 01:47 39.36967 -85.87791 11118 ft 322 kts 316°
2026-04-25 01:48 39.38666 -85.89646 10682 ft 323 kts 317°
2026-04-25 01:48 39.40362 -85.91468 10465 ft 307 kts 317°
2026-04-25 01:48 39.41976 -85.93171 10310 ft 291 kts 318°
2026-04-25 01:48 39.43504 -85.94772 10179 ft 275 kts 318°
2026-04-25 01:49 39.44960 -85.96293 10060 ft 261 kts 318°
2026-04-25 01:49 39.46343 -85.97736 9871 ft 253 kts 319°
2026-04-25 01:49 39.47753 -85.99139 9587 ft 259 kts 320°
2026-04-25 01:49 39.49215 -86.00569 9271 ft 266 kts 320°
2026-04-25 01:50 39.50706 -86.02023 8951 ft 269 kts 320°
2026-04-25 01:50 39.52205 -86.03488 8608 ft 271 kts 320°
2026-04-25 01:50 39.53692 -86.04945 8279 ft 269 kts 320°
2026-04-25 01:50 39.55169 -86.06396 7949 ft 265 kts 320°
2026-04-25 01:51 39.56623 -86.07824 7627 ft 260 kts 320°
2026-04-25 01:51 39.58060 -86.09237 7316 ft 259 kts 320°
2026-04-25 01:51 39.59259 -86.10940 6983 ft 255 kts 297°
2026-04-25 01:51 39.59795 -86.13105 6677 ft 252 kts 278°
2026-04-25 01:52 39.59993 -86.15370 6369 ft 252 kts 276°
2026-04-25 01:52 39.60159 -86.17640 6020 ft 252 kts 276°
2026-04-25 01:52 39.60325 -86.19906 5683 ft 252 kts 276°
2026-04-25 01:52 39.60491 -86.22118 5349 ft 247 kts 277°
2026-04-25 01:53 39.60659 -86.24313 5020 ft 241 kts 277°
2026-04-25 01:53 39.60826 -86.26458 4714 ft 236 kts 278°
2026-04-25 01:53 39.60991 -86.28558 4404 ft 232 kts 278°
2026-04-25 01:53 39.61154 -86.30618 4110 ft 227 kts 278°
2026-04-25 01:54 39.61311 -86.32612 3819 ft 222 kts 278°
2026-04-25 01:54 39.61467 -86.34590 3546 ft 217 kts 279°
2026-04-25 01:54 39.61638 -86.36522 3256 ft 212 kts 286°
2026-04-25 01:54 39.62391 -86.38040 3055 ft 196 kts 329°
2026-04-25 01:55 39.63623 -86.38279 3009 ft 180 kts 16°
2026-04-25 01:55 39.64602 -86.37348 3030 ft 176 kts 38°
2026-04-25 01:55 39.65499 -86.36262 2950 ft 175 kts 39°
2026-04-25 01:55 39.66353 -86.35163 2712 ft 171 kts 40°
2026-04-25 01:56 39.67161 -86.34117 2549 ft 160 kts 39°
2026-04-25 01:56 39.67951 -86.33101 2286 ft 157 kts 40°
2026-04-25 01:56 39.68552 -86.31862 1913 ft 166 kts 61°
2026-04-25 01:56 39.69194 -86.30663 1641 ft 160 kts 46°
2026-04-25 01:57 39.69348 -86.27965 2698 ft 184 kts 123°
2026-04-25 01:57 39.68474 -86.26722 2947 ft 186 kts 135°
2026-04-25 01:57 39.67383 -86.25891 3028 ft 184 kts 172°
2026-04-25 01:58 39.66174 -86.26124 3012 ft 173 kts 216°
2026-04-25 01:58 39.65249 -86.27079 3013 ft 170 kts 225°
2026-04-25 01:58 39.64337 -86.28074 3010 ft 171 kts 225°
2026-04-25 01:58 39.63430 -86.29061 2993 ft 170 kts 225°
2026-04-25 01:59 39.62526 -86.30043 2990 ft 169 kts 225°
2026-04-25 01:59 39.61640 -86.31007 3015 ft 168 kts 225°
2026-04-25 01:59 39.60738 -86.31984 3008 ft 168 kts 225°
2026-04-25 01:59 39.59837 -86.32958 3011 ft 168 kts 225°
2026-04-25 02:00 39.58936 -86.33937 3008 ft 168 kts 225°
2026-04-25 02:00 39.58044 -86.34903 3007 ft 169 kts 225°
2026-04-25 02:00 39.57137 -86.35890 3020 ft 170 kts 225°
2026-04-25 02:00 39.56228 -86.36892 3000 ft 171 kts 230°
2026-04-25 02:01 39.55738 -86.38189 3006 ft 156 kts 275°
2026-04-25 02:01 39.56099 -86.39436 3017 ft 147 kts 315°
2026-04-25 02:01 39.56804 -86.40390 3012 ft 150 kts 315°
2026-04-25 02:01 39.57560 -86.41342 2990 ft 152 kts 329°
2026-04-25 02:02 39.58569 -86.41519 3005 ft 153 kts 14°
2026-04-25 02:02 39.59453 -86.40725 3025 ft 157 kts 36°
2026-04-25 02:02 39.60292 -86.39786 3017 ft 159 kts 35°
2026-04-25 02:02 39.61153 -86.38909 2908 ft 155 kts 27°
2026-04-25 02:03 39.62089 -86.38198 2564 ft 156 kts 25°
2026-04-25 02:03 39.63006 -86.37504 2211 ft 155 kts 25°
2026-04-25 02:03 39.63962 -86.36789 2155 ft 161 kts 25°
2026-04-25 02:03 39.64934 -86.36056 1952 ft 160 kts 28°
2026-04-25 02:04 39.65808 -86.35252 1918 ft 155 kts 32°
2026-04-25 02:04 39.66664 -86.34355 1725 ft 159 kts 36°
2026-04-25 02:04 39.67466 -86.33453 1532 ft 146 kts 34°
2026-04-25 02:04 39.68253 -86.32673 1365 ft 144 kts 37°
2026-04-25 02:05 39.68976 -86.31739 1152 ft 147 kts 44°
2026-04-25 02:05 39.69717 -86.30832 961 ft 147 kts 41°
2026-04-25 02:05 39.70444 -86.29904 811 ft 144 kts 42°
2026-04-25 02:05 39.71055 -86.29128 796 ft 64 kts 44°
2026-04-25 02:06 39.71256 -86.28869 799 ft 60 kts 48°
2026-04-25 02:06 39.71350 -86.28620 801 ft 0 kts 89°
2026-04-25 02:06 39.71351 -86.28613 801 ft 1 kts 89°
2026-04-25 02:06 39.71375 -86.28526 799 ft 24 kts 56°
2026-04-25 02:07 39.71506 -86.28359 798 ft 28 kts 46°
2026-04-25 02:07 39.71613 -86.28168 797 ft 26 kts 66°
2026-04-25 02:07 39.71713 -86.27990 798 ft 24 kts 41°
2026-04-25 02:07 39.71829 -86.27845 801 ft 23 kts 44°
2026-04-25 02:08 39.71940 -86.27703 799 ft 22 kts 45°
2026-04-25 02:08 39.72048 -86.27562 796 ft 23 kts 45°
2026-04-25 02:08 39.72164 -86.27413 793 ft 23 kts 44°
2026-04-25 02:08 39.72279 -86.27270 792 ft 23 kts 44°
2026-04-25 02:09 39.72356 -86.27195 794 ft 6 kts
2026-04-25 02:09 39.72395 -86.27220 795 ft 8 kts 323°
2026-04-25 02:09 39.72440 -86.27278 794 ft 11 kts 315°
2026-04-25 02:09 39.72502 -86.27359 792 ft 14 kts 315°
2026-04-25 02:10 39.72570 -86.27445 793 ft 15 kts 316°
2026-04-25 02:10 39.72656 -86.27555 791 ft 20 kts 313°
2026-04-25 02:10 39.72754 -86.27687 793 ft 20 kts 314°
2026-04-25 02:10 39.72851 -86.27819 794 ft 20 kts 313°
2026-04-25 02:11 39.72948 -86.27943 797 ft 19 kts 315°
2026-04-25 02:11 39.73040 -86.28063 797 ft 19 kts 314°
2026-04-25 02:11 39.73129 -86.28180 798 ft 18 kts 314°
2026-04-25 02:11 39.73216 -86.28294 796 ft 18 kts 315°
2026-04-25 02:12 39.73311 -86.28360 796 ft 14 kts 26°
2026-04-25 02:12 39.73351 -86.28254 798 ft 14 kts 102°
2026-04-25 02:12 39.73335 -86.28143 799 ft 10 kts 83°
2026-04-25 02:12 39.73336 -86.28134 799 ft 0 kts 82°